Вернуться в каталог

COSMOS 1348 DEB

LostHEO
NORAD 32772·DEBRIS·🇷🇺 Russia

Запущен Apr 7, 1982 с Plesetsk Cosmodrome

Loading…

Ближайшие Пролёты (ближайшие 24 часа)

TLE

УстаревшееSource: Space-Track

Эпоха: Apr 19, 2021, 11:13 UTC

1 32772U 82029F   21109.46750279  .00000119  00000-0  00000+0 0  9995
2 32772  71.8534 279.0506 4551974  37.8642 307.0716  1.93634119101974

Отслеживайте COSMOS 1348 DEB в реальном времени с AllMySat

Download on the App Store